Regional Weather Roundup
Issued by NWS Kansas City/Pleasant Hill, MO

Home | Current Version | Previous Version | Graphics & Text | Print | Product List | Glossary Off
Versions: 1 2 3 4 5 6 7 8 9 10 11 12 13 14 15 16 17 18 19 20 21 22 23 24 25 26 27 28 29 30 31 32 33 34 35 36 37 38 39 40 41 42 43 44 45 46 47 48 49

000
ASUS43 KEAX 271310
RWREAX

WEATHER ROUNDUP FOR EASTERN KANSAS AND NORTHWEST MISSOURI
NATIONAL WEATHER SERVICE KANSAS CITY/PLEASANT HILL MO
800 AM CDT MON JUL 27 2015

KSZ040-057-103>105-MOZ028-029-037-043-271400-
...KANSAS CITY METROPOLITAN AREA...

CITY           SKY/WX    TMP DP  RH WIND       PRES   REMARKS
K.C. INTL      PTSUNNY   79  74  84 S7        29.92F
K.C. DOWNTOWN  PTSUNNY   83  74  74 S5        29.91S
LEES SUMMIT    CLOUDY    79  72  79 S5        29.94S
OLATHE - IXD   CLOUDY    77  74  90 S6        29.94S
OLATHE - OJC   CLOUDY    76  73  91 S5        29.93F
LAWRENCE       PTSUNNY   77  73  87 SE3       29.91F

$$

MOZ001>008-011>017-020>025-030>033-038>040-044>046-053-054-271400-
...NORTHERN AND CENTRAL MISSOURI...

CITY           SKY/WX    TMP DP  RH WIND       PRES   REMARKS
ST. JOSEPH     MOSUNNY   80  76  87 S5        29.91R
MOSBY          CLOUDY    79  77  94 CALM      29.92S
WARRENSBURG    PTSUNNY   77  72  83 S3        29.94F
WHITEMAN AFB   PTSUNNY   79  74  86 S6        29.94R
CLINTON        MOSUNNY   79  79 100 CALM      29.96R
SEDALIA        PTSUNNY   79  74  84 SW5       29.97R
WARSAW         NOT AVBL
CHILLICOTHE      N/A     81  77  88 S3        29.94S
KIRKSVILLE     CLOUDY    77  75  93 E5        29.97R FOG

$$

MOZ041-047>049-056>058-063>065-088>090-097-271400-
...EASTERN AND SOUTHERN MISSOURI...

CITY           SKY/WX    TMP DP  RH WIND       PRES   REMARKS
ST. LOUIS INTL PTSUNNY   83  76  79 VRB5      29.95R HX  91
SPIRIT OF STL  MOSUNNY   81  78  91 W8        29.93S
COLUMBIA       MOSUNNY   78  76  93 CALM      29.96S
JEFFERSON CITY MOSUNNY   78  75  90 SE3       29.95R
ROLLA          MOSUNNY   78  75  90 SW6       29.97R
OSAGE BEACH    MOSUNNY   79  73  83 CALM      29.97R
SPRINGFIELD    SUNNY     80  75  84 S8        29.98S
BRANSON        PTSUNNY   81  73  78 CALM      30.01R
JOPLIN         SUNNY     81  76  84 S7        29.97R
WEST PLAINS    MOSUNNY   80  74  81 SW6       30.02R

$$

IAZ060-094-KSZ022-034>040-054-083-096-NEZ052-066-093-271400-
...KANSAS...SOUTHEAST NEBRASKA AND IOWA...

CITY           SKY/WX    TMP DP  RH WIND       PRES   REMARKS
TOPEKA         MOSUNNY   77  74  90 SE3       29.90F
MANHATTAN      CLOUDY    77  70  79 S6        29.87F
EMPORIA        PTSUNNY   77  70  79 CALM      29.93R
CHANUTE        PTSUNNY   78  76  93 MISG      29.95R
WICHITA        PTSUNNY   78  69  73 E6        29.92F
OMAHA          CLOUDY    79  76  90 SE12      29.88R
LINCOLN        CLOUDY    77  71  82 S6        29.91R
FALLS CITY     PTSUNNY   78  74  87 S5        29.89R
LAMONI         PTSUNNY   78  75  90 VRB5      29.95R
DES MOINES     PTSUNNY   77  72  84 SE8       29.94R

$$



USA.gov is the U.S. government's official web portal to all federal, state and local government web resources and services.